Location: Colonie
(42.7179°N, 73.8335°W)
Time: 04:40:03
(UTC+00:00)

YAOGAN 6 - Pass Details

Date: 29 October 2020
Orbit: 465 x 504 km, 97.0° (Epoch: 29 November)

Event Time Altitude Azimuth Distance (km) Brightness Sun altitude
Rises 22:25:26 0° 178° (S) 2,565 6.4 -6.9°
Reaches altitude 10° 22:27:32 10° 183° (S) 1,693 5.5 -7.3°
Maximum altitude 22:31:06 52° 261° (W) 631 3.6 -7.9°
Drops below altitude 10° 22:34:44 10° 338° (NNW) 1,721 5.5 -8.6°
Sets 22:36:53 0° 344° (NNW) 2,613 6.4 -9.0°
